Lid_Strength_Index
1 0 0 0 0 0 0 -0 -1 4 7 8 4 4 4 4 4 4 4 4 3 3 4 7 6 8 10 9
1 1 1 1 1 1 0 -0 -0 4 8 4 4 4 4 3 3 4 4 4 3 5 5 5 7 9 8 12
1 1 1 0 0 -0 -1 0 4 4 8 3 6 5 4 6 4 4 4 4 4 7 7 9 11 10 13 12
2 1 1 0 1 1 3 4 5 7 7 8 6 6 5 5 5 5 5 5 7 10 11 12 15 14 13 12
1 2 3 4 5 6 7 9 8 8 8 6 5 7 6 5 5 5 9 9 12 14 12 11 11 11 12 13
2 3 3 5 5 5 9 7 8 8 7 6 9 8 6 7 8 11 8 11 14 12 10 11 12 11 13 14
2 3 4 5 2 3 7 8 8 9 8 7 10 10 8 8 9 11 12 14 13 10 11 12 14 12 15 15
4 2 4 3 2 2 8 10 9 9 8 7 11 8 8 9 9 11 11 12 12 12 12 14 14 14 13 14
3 4 3 2 2 3 14 9 9 6 7 10 9 9 8 8 12 12 10 15 14 15 15 15 13 14 13 14
2 3 2 2 3 9 14 10 9 10 9 9 10 8 9 8 9 11 12 13 12 14 14 13 12 12 14 13
4 2 2 4 9 12 9 11 10 10 10 11 10 10 12 14 15 15 14 14 15 13 13 14 12 14 16 19
2 2 3 6 11 10 10 9 10 10 12 11 11 11 11 14 14 15 15 16 16 16 14 15 17 16 17 21
3 3 5 10 11 10 9 10 10 10 11 10 11 11 14 14 15 15 17 18 17 14 14 14 15 17 20 17
3 4 6 10 10 9 9 9 11 11 11 12 11 11 13 14 14 13 14 16 18 15 14 13 14 16 16 20
4 5 9 10 10 10 9 10 11 11 11 11 11 13 14 14 13 14 13 15 16 16 14 18 19 18 19 18
6 6 9 9 10 10 9 10 10 11 11 11 12 13 14 14 12 12 15 15 17 19 19 16 15 17 19 19
10 10 10 11 10 11 11 11 12 11 10 12 13 12 13 12 12 13 16 14 17 20 20 18 16 18 18 18